| time (UTC) | temp C | wind direction | speed KPH | gust KPH | rain 1hr cm | rain 24hr cm | rain mn cm | humidity % | barometer mb |
| 20260508141553 | 10 | 299 | 11.3 | 25.7 | 0.00 | 0.33 | 0.00 | 71 | 1005.9 |
| 20260508140051 | 10 | 248 | 12.9 | 29.0 | 0.00 | 0.33 | 0.00 | 70 | 1005.9 |
| 20260508134557 | 9 | 297 | 14.5 | 27.4 | 0.00 | 0.86 | 0.00 | 69 | 1005.9 |
| 20260508133103 | 10 | 305 | 12.9 | 24.1 | 0.00 | 0.86 | 0.00 | 70 | 1005.9 |
| 20260508131549 | 10 | 259 | 9.7 | 24.1 | 0.00 | 0.86 | 0.00 | 67 | 1005.8 |
| 20260508130051 | 10 | 226 | 11.3 | 25.7 | 0.00 | 0.86 | 0.00 | 67 | 1005.6 |
| 20260508124551 | 9 | 281 | 16.1 | 27.4 | 0.00 | 1.50 | 0.00 | 65 | 1005.6 |
| 20260508123054 | 9 | 276 | 8.0 | 27.4 | 0.00 | 1.50 | 0.00 | 67 | 1005.6 |
| 20260508121552 | 9 | 260 | 12.9 | 24.1 | 0.00 | 1.50 | 0.00 | 66 | 1005.5 |
| 20260508120055 | 9 | 298 | 8.0 | 22.5 | 0.00 | 1.50 | 0.00 | 70 | 1005.4 |
| 20260508114553 | 8 | 324 | 9.7 | 25.7 | 0.00 | 1.50 | 0.00 | 70 | 1005.3 |
| 20260508113102 | 8 | 288 | 6.4 | 17.7 | 0.00 | 1.50 | 0.00 | 73 | 1005.1 |
| 20260508111548 | 8 | 244 | 9.7 | 19.3 | 0.00 | 1.50 | 0.00 | 76 | 1005.2 |
| 20260508110050 | 7 | 300 | 6.4 | 16.1 | 0.00 | 1.50 | 0.00 | 81 | 1005.0 |
| 20260508104549 | 6 | 234 | 6.4 | 16.1 | 0.00 | 1.50 | 0.00 | 86 | 1005.0 |
| 20260508103049 | 5 | 265 | 6.4 | 12.9 | 0.00 | 1.50 | 0.00 | 91 | 1004.8 |
| 20260508101548 | 4 | 281 | 3.2 | 8.0 | 0.00 | 1.50 | 0.00 | 93 | 1004.8 |
| 20260508100048 | 3 | 286 | 3.2 | 9.7 | 0.00 | 1.50 | 0.00 | 94 | 1004.6 |
| 20260508094550 | 3 | 273 | 4.8 | 9.7 | 0.00 | 1.52 | 0.00 | 94 | 1004.4 |
| 20260508093052 | 3 | 332 | 3.2 | 12.9 | 0.00 | 1.52 | 0.00 | 94 | 1004.3 |
| 20260508091551 | 3 | 257 | 3.2 | 12.9 | 0.00 | 1.52 | 0.00 | 94 | 1004.2 |
| 20260508090055 | 3 | 277 | 3.2 | 9.7 | 0.00 | 1.52 | 0.00 | 94 | 1004.0 |
| 20260508084550 | 3 | 291 | 3.2 | 8.0 | 0.00 | 1.52 | 0.00 | 94 | 1003.9 |
| 20260508083046 | 3 | 296 | 1.6 | 8.0 | 0.00 | 1.52 | 0.00 | 94 | 1003.7 |
| 20260508081557 | 3 | 305 | 3.2 | 9.7 | 0.00 | 1.52 | 0.00 | 94 | 1003.8 |
| 20260508080051 | 3 | 293 | 3.2 | 8.0 | 0.00 | 1.52 | 0.00 | 94 | 1003.8 |
| 20260508074548 | 3 | 292 | 3.2 | 11.3 | 0.00 | 1.68 | 0.00 | 94 | 1003.9 |
| 20260508073053 | 4 | 293 | 3.2 | 8.0 | 0.00 | 1.68 | 0.00 | 94 | 1003.7 |
| 20260508071550 | 4 | 351 | 1.6 | 8.0 | 0.00 | 1.68 | 0.00 | 94 | 1003.8 |
| 20260508070057 | 4 | 342 | 1.6 | 6.4 | 0.00 | 1.68 | 0.00 | 94 | 1003.8 |
| 20260508064741 | 4 | 315 | 1.6 | 8.0 | 0.00 | 2.36 | 0.00 | 94 | 1004.0 |
| 20260508063053 | 3 | 331 | 1.6 | 8.0 | 0.00 | 2.36 | 0.00 | 94 | 1003.9 |
| 20260508061548 | 3 | 329 | 1.6 | 8.0 | 0.00 | 2.36 | 0.00 | 94 | 1003.9 |
| 20260508060055 | 3 | 349 | 1.6 | 4.8 | 0.00 | 2.36 | 0.00 | 94 | 1003.9 |
| 20260508054558 | 3 | 329 | 1.6 | 6.4 | 0.00 | 3.17 | 0.00 | 93 | 1004.1 |
| 20260508053054 | 3 | 0 | 0.0 | 9.7 | 0.00 | 3.17 | 0.00 | 93 | 1003.8 |
| 20260508051552 | 3 | 286 | 1.6 | 12.9 | 0.00 | 3.17 | 0.00 | 93 | 1003.9 |
| 20260508050054 | 3 | 277 | 1.6 | 6.4 | 0.00 | 3.17 | 0.00 | 93 | 1003.9 |
| 20260508044603 | 3 | 305 | 1.6 | 6.4 | 0.00 | 3.25 | 0.00 | 93 | 1004.0 |
| 20260508043053 | 2 | 278 | 1.6 | 4.8 | 0.00 | 3.25 | 0.00 | 92 | 1004.0 |
| 20260508041554 | 2 | 265 | 1.6 | 3.2 | 0.00 | 3.25 | 0.00 | 92 | 1004.0 |
| 20260508040058 | 3 | 223 | 0.0 | 3.2 | 0.00 | 3.25 | 0.00 | 92 | 1004.5 |
| 20260508034554 | 3 | 157 | 0.0 | 3.2 | 0.00 | 3.25 | 0.00 | 91 | 1005.1 |
| 20260508033055 | 3 | 170 | 0.0 | 4.8 | 0.00 | 3.25 | 0.00 | 91 | 1004.8 |
| 20260508031553 | 3 | 0 | 0.0 | 3.2 | 0.00 | 3.25 | 0.00 | 91 | 1004.7 |
| 20260508030059 | 3 | 168 | 0.0 | 4.8 | 0.00 | 3.25 | 0.00 | 91 | 1004.6 |
| 20260508024552 | 4 | 0 | 0.0 | 4.8 | 0.00 | 3.25 | 3.25 | 90 | 1004.5 |
| 20260508023047 | 5 | 0 | 0.0 | 1.6 | 0.00 | 3.25 | 3.25 | 89 | 1004.1 |
| 20260508021547 | 5 | 0 | 0.0 | 3.2 | 0.00 | 3.25 | 3.25 | 88 | 1004.4 |
| 20260508020049 | 6 | 0 | 0.0 | 3.2 | 0.00 | 3.25 | 3.25 | 88 | 1004.7 |
| 20260508014548 | 6 | 261 | 1.6 | 8.0 | 0.00 | 3.25 | 3.25 | 87 | 1004.6 |
| 20260508013052 | 6 | 0 | 3.2 | 11.3 | 0.00 | 3.25 | 3.25 | 87 | 1004.6 |
| 20260508011550 | 7 | 229 | 1.6 | 12.9 | 0.00 | 3.25 | 3.25 | 87 | 1004.8 |
| 20260508010054 | 7 | 217 | 4.8 | 11.3 | 0.00 | 3.25 | 3.25 | 86 | 1004.6 |
| 20260508004553 | 7 | 244 | 4.8 | 11.3 | 0.00 | 3.25 | 3.25 | 86 | 1004.5 |
| 20260508003056 | 7 | 252 | 3.2 | 12.9 | 0.00 | 3.25 | 3.25 | 85 | 1004.6 |
| 20260508001553 | 7 | 229 | 1.6 | 11.3 | 0.00 | 3.25 | 3.25 | 84 | 1004.2 |
| 20260508000053 | 8 | 271 | 3.2 | 11.3 | 0.00 | 3.25 | 3.25 | 83 | 1003.9 |
| 20260507234602 | 8 | 283 | 3.2 | 12.9 | 0.00 | 3.25 | 3.25 | 82 | 1004.0 |
| 20260507233052 | 8 | 273 | 4.8 | 11.3 | 0.00 | 3.25 | 3.25 | 81 | 1003.8 |
| 20260507231557 | 8 | 241 | 6.4 | 17.7 | 0.00 | 3.25 | 3.25 | 79 | 1003.7 |
| 20260507230052 | 9 | 240 | 6.4 | 16.1 | 0.00 | 3.25 | 3.25 | 80 | 1003.6 |
| 20260507224555 | 10 | 291 | 4.8 | 17.7 | 0.00 | 3.25 | 3.25 | 80 | 1003.8 |
| 20260507223058 | 10 | 284 | 9.7 | 19.3 | 0.00 | 3.25 | 3.25 | 77 | 1003.6 |
| 20260507221552 | 11 | 269 | 6.4 | 20.9 | 0.00 | 3.25 | 3.25 | 76 | 1003.5 |
| 20260507220054 | 10 | 263 | 4.8 | 17.7 | 0.00 | 3.25 | 3.25 | 77 | 1003.6 |
| 20260507214558 | 11 | 251 | 6.4 | 20.9 | 0.00 | 3.25 | 3.25 | 76 | 1003.7 |
| 20260507213052 | 11 | 254 | 9.7 | 19.3 | 0.00 | 3.25 | 3.25 | 76 | 1003.8 |
| 20260507211552 | 11 | 280 | 9.7 | 20.9 | 0.00 | 3.25 | 3.25 | 77 | 1003.9 |
| 20260507210051 | 11 | 283 | 8.0 | 22.5 | 0.00 | 3.25 | 3.25 | 79 | 1003.8 |
| 20260507204550 | 11 | 305 | 9.7 | 20.9 | 0.00 | 3.25 | 3.25 | 79 | 1003.8 |
| 20260507203100 | 11 | 259 | 9.7 | 17.7 | 0.00 | 3.25 | 3.25 | 79 | 1003.6 |
| 20260507201551 | 11 | 269 | 12.9 | 20.9 | 0.00 | 3.25 | 3.25 | 80 | 1003.5 |
| 20260507200054 | 11 | 305 | 9.7 | 19.3 | 0.00 | 3.25 | 3.25 | 80 | 1003.5 |
| 20260507194547 | 12 | 263 | 9.7 | 20.9 | 0.00 | 3.25 | 3.25 | 81 | 1003.5 |
| 20260507193055 | 12 | 192 | 9.7 | 19.3 | 0.00 | 3.25 | 3.25 | 81 | 1003.4 |
| 20260507191553 | 12 | 246 | 11.3 | 22.5 | 0.00 | 3.25 | 3.25 | 81 | 1003.4 |
| 20260507190052 | 12 | 319 | 8.0 | 20.9 | 0.00 | 3.25 | 3.25 | 83 | 1003.3 |
| 20260507184549 | 13 | 276 | 6.4 | 16.1 | 0.00 | 3.25 | 3.25 | 86 | 1003.3 |
| 20260507183054 | 12 | 276 | 4.8 | 16.1 | 0.00 | 3.25 | 3.25 | 89 | 1003.1 |
| 20260507181547 | 12 | 259 | 4.8 | 17.7 | 0.00 | 3.25 | 3.25 | 91 | 1003.4 |
| 20260507180046 | 12 | 234 | 4.8 | 14.5 | 0.00 | 3.25 | 3.25 | 93 | 1003.4 |
| 20260507174603 | 11 | 275 | 3.2 | 9.7 | 0.00 | 3.25 | 3.25 | 95 | 1003.3 |
| 20260507173059 | 10 | 51 | 4.8 | 16.1 | 0.00 | 3.25 | 3.25 | 96 | 1002.7 |
| 20260507171612 | 10 | 354 | 6.4 | 12.9 | 0.00 | 3.25 | 3.25 | 96 | 1003.6 |
| 20260507170057 | 9 | 298 | 4.8 | 16.1 | 0.00 | 3.25 | 3.25 | 96 | 1003.9 |
| 20260507164605 | 9 | 274 | 1.6 | 12.9 | 0.00 | 3.25 | 3.25 | 96 | 1003.7 |
| 20260507163051 | 8 | 356 | 8.0 | 17.7 | 0.03 | 3.25 | 3.25 | 96 | 1004.1 |
| 20260507161550 | 8 | 348 | 1.6 | 11.3 | 0.08 | 3.25 | 3.25 | 96 | 1003.1 |
| 20260507160051 | 8 | 334 | 3.2 | 16.1 | 0.08 | 3.23 | 3.23 | 96 | 1004.3 |
| 20260507154555 | 8 | 263 | 6.4 | 16.1 | 0.13 | 3.23 | 3.23 | 96 | 1004.5 |
| 20260507153052 | 8 | 227 | 1.6 | 12.9 | 0.18 | 3.20 | 3.20 | 96 | 1003.7 |
| 20260507151552 | 8 | 177 | 3.2 | 9.7 | 0.18 | 3.17 | 3.17 | 96 | 1003.6 |
| 20260507150047 | 8 | 143 | 1.6 | 6.4 | 0.20 | 3.12 | 3.12 | 96 | 1003.8 |
| 20260507144553 | 8 | 225 | 1.6 | 9.7 | 0.20 | 3.10 | 3.10 | 96 | 1004.2 |
| 20260507143055 | 8 | 138 | 4.8 | 8.0 | 0.23 | 3.02 | 3.02 | 96 | 1004.3 |